Time,TemperatureF,DewpointF,PressureIn,WindDirection,WindDirectionDegrees,WindSpeedMPH,WindSpeedGustMPH,Humidity,HourlyPrecipIn,Conditions,Clouds,dailyrainin,SoftwareType,DateUTC
2013-09-29 00:00:00,43.7,42.0,30.24,ESE,121,0.0,1.0,93,0.00,,,0.01,weatherlink.com 1.10,2013-09-29 04:00:00,
2013-09-29 00:15:00,43.1,41.0,30.23,ESE,121,0.0,0.0,93,0.00,,,0.01,weatherlink.com 1.10,2013-09-29 04:15:00,
2013-09-29 00:30:00,42.8,41.0,30.24,ESE,121,0.0,0.0,93,0.00,,,0.01,weatherlink.com 1.10,2013-09-29 04:30:00,
2013-09-29 00:45:00,42.2,40.0,30.23,ESE,121,0.0,0.0,93,0.00,,,0.01,weatherlink.com 1.10,2013-09-29 04:45:00,
2013-09-29 01:00:00,41.9,40.0,30.23,ESE,121,0.0,0.0,93,0.00,,,0.01,weatherlink.com 1.10,2013-09-29 05:00:00,
2013-09-29 01:15:00,41.8,40.0,30.23,ESE,121,0.0,1.0,93,0.00,,,0.01,weatherlink.com 1.10,2013-09-29 05:15:00,
2013-09-29 01:30:00,41.6,40.0,30.23,ESE,121,0.0,0.0,94,0.00,,,0.01,weatherlink.com 1.10,2013-09-29 05:30:00,
2013-09-29 01:45:00,41.5,39.0,30.23,ESE,121,0.0,1.0,92,0.00,,,0.01,weatherlink.com 1.10,2013-09-29 05:45:00,
2013-09-29 02:00:00,40.9,39.0,30.23,ESE,121,1.0,2.0,93,0.00,,,0.01,weatherlink.com 1.10,2013-09-29 06:00:00,
2013-09-29 02:15:00,40.7,39.0,30.23,ESE,121,0.0,1.0,94,0.00,,,0.01,weatherlink.com 1.10,2013-09-29 06:15:00,
2013-09-29 02:30:00,40.1,38.0,30.22,ESE,121,0.0,2.0,93,0.00,,,0.01,weatherlink.com 1.10,2013-09-29 06:30:00,
2013-09-29 02:45:00,39.9,38.0,30.22,ESE,121,1.0,1.0,94,0.00,,,0.01,weatherlink.com 1.10,2013-09-29 06:45:00,
2013-09-29 03:00:00,39.6,38.0,30.21,ESE,121,0.0,0.0,94,0.00,,,0.01,weatherlink.com 1.10,2013-09-29 07:00:00,
2013-09-29 03:16:00,39.5,38.0,30.21,ESE,121,0.0,0.0,94,0.00,,,0.01,weatherlink.com 1.10,2013-09-29 07:16:00,
2013-09-29 03:31:00,39.2,38.0,30.21,ESE,121,1.0,2.0,95,0.00,,,0.01,weatherlink.com 1.10,2013-09-29 07:31:00,
2013-09-29 03:46:00,39.7,38.0,30.20,ESE,121,0.0,0.0,95,0.00,,,0.01,weatherlink.com 1.10,2013-09-29 07:46:00,
2013-09-29 04:01:00,39.2,38.0,30.20,ESE,121,0.0,2.0,94,0.00,,,0.00,weatherlink.com 1.10,2013-09-29 08:01:00,
2013-09-29 04:16:00,39.1,38.0,30.20,ESE,121,0.0,1.0,95,0.00,,,0.00,weatherlink.com 1.10,2013-09-29 08:16:00,
2013-09-29 04:31:00,39.1,38.0,30.20,ESE,121,0.0,1.0,95,0.00,,,0.00,weatherlink.com 1.10,2013-09-29 08:31:00,
2013-09-29 04:46:00,39.2,38.0,30.20,ESE,121,0.0,0.0,95,0.00,,,0.00,weatherlink.com 1.10,2013-09-29 08:46:00,
2013-09-29 05:01:00,39.4,38.0,30.20,ESE,121,0.0,2.0,96,0.00,,,0.00,weatherlink.com 1.10,2013-09-29 09:01:00,
2013-09-29 05:16:00,39.7,39.0,30.20,ESE,121,0.0,0.0,96,0.00,,,0.00,weatherlink.com 1.10,2013-09-29 09:16:00,
2013-09-29 05:31:00,39.9,39.0,30.20,ESE,121,0.0,0.0,96,0.00,,,0.00,weatherlink.com 1.10,2013-09-29 09:31:00,
2013-09-29 05:46:00,40.2,39.0,30.20,ESE,121,0.0,1.0,96,0.00,,,0.00,weatherlink.com 1.10,2013-09-29 09:46:00,
2013-09-29 06:01:00,40.2,39.0,30.19,ESE,121,0.0,1.0,96,0.00,,,0.00,weatherlink.com 1.10,2013-09-29 10:01:00,
2013-09-29 06:16:00,40.2,39.0,30.20,ESE,121,0.0,1.0,96,0.00,,,0.00,weatherlink.com 1.10,2013-09-29 10:16:00,
2013-09-29 06:31:00,40.1,39.0,30.20,ESE,121,0.0,0.0,96,0.00,,,0.00,weatherlink.com 1.10,2013-09-29 10:31:00,
2013-09-29 06:46:00,39.8,39.0,30.20,ESE,121,0.0,1.0,96,0.00,,,0.00,weatherlink.com 1.10,2013-09-29 10:46:00,
2013-09-29 07:01:00,39.8,39.0,30.20,ESE,121,0.0,1.0,96,0.00,,,0.00,weatherlink.com 1.10,2013-09-29 11:01:00,
2013-09-29 07:16:00,39.6,39.0,30.20,ESE,121,0.0,0.0,96,0.00,,,0.00,weatherlink.com 1.10,2013-09-29 11:16:00,
2013-09-29 07:31:00,39.6,39.0,30.20,ESE,121,0.0,1.0,96,0.00,,,0.00,weatherlink.com 1.10,2013-09-29 11:31:00,
2013-09-29 07:46:00,39.7,39.0,30.20,ESE,121,0.0,1.0,96,0.00,,,0.00,weatherlink.com 1.10,2013-09-29 11:46:00,
2013-09-29 08:01:00,40.2,39.0,30.21,ESE,121,0.0,1.0,97,0.00,,,0.00,weatherlink.com 1.10,2013-09-29 12:01:00,
2013-09-29 08:16:00,40.7,40.0,30.21,ESE,121,0.0,1.0,97,0.00,,,0.00,weatherlink.com 1.10,2013-09-29 12:16:00,
2013-09-29 08:31:00,41.4,41.0,30.21,ESE,121,0.0,1.0,97,0.00,,,0.00,weatherlink.com 1.10,2013-09-29 12:31:00,
2013-09-29 08:46:00,42.1,41.0,30.21,ESE,121,0.0,1.0,96,0.00,,,0.00,weatherlink.com 1.10,2013-09-29 12:46:00,
2013-09-29 09:01:00,42.8,42.0,30.20,ESE,121,0.0,2.0,97,0.00,,,0.00,weatherlink.com 1.10,2013-09-29 13:01:00,
2013-09-29 09:16:00,44.5,43.0,30.20,ESE,121,0.0,1.0,95,0.00,,,0.00,weatherlink.com 1.10,2013-09-29 13:16:00,
2013-09-29 09:31:00,46.7,45.0,30.20,WNW,285,0.0,3.0,92,0.00,,,0.00,weatherlink.com 1.10,2013-09-29 13:31:00,
2013-09-29 09:46:00,48.3,46.0,30.19,WNW,285,0.0,1.0,92,0.00,,,0.00,weatherlink.com 1.10,2013-09-29 13:46:00,
2013-09-29 10:01:00,50.7,48.0,30.19,WNW,283,0.0,2.0,90,0.00,,,0.00,weatherlink.com 1.10,2013-09-29 14:01:00,
2013-09-29 10:16:00,53.8,50.0,30.19,WNW,283,0.0,0.0,86,0.00,,,0.00,weatherlink.com 1.10,2013-09-29 14:16:00,
2013-09-29 10:32:00,57.3,51.0,30.19,West,266,0.0,0.0,80,0.00,,,0.00,weatherlink.com 1.10,2013-09-29 14:32:00,
2013-09-29 10:47:00,59.5,52.0,30.18,SW,225,0.0,2.0,76,0.00,,,0.00,weatherlink.com 1.10,2013-09-29 14:47:00,
2013-09-29 11:02:00,62.6,51.0,30.18,SE,142,2.0,6.0,67,0.00,,,0.00,weatherlink.com 1.10,2013-09-29 15:02:00,
2013-09-29 11:17:00,64.9,51.0,30.17,South,182,2.0,5.0,61,0.00,,,0.00,weatherlink.com 1.10,2013-09-29 15:17:00,
2013-09-29 11:32:00,65.6,50.0,30.16,ESE,106,4.0,5.0,58,0.00,,,0.00,weatherlink.com 1.10,2013-09-29 15:32:00,
2013-09-29 11:47:00,66.3,50.0,30.15,WNW,294,0.0,4.0,57,0.00,,,0.00,weatherlink.com 1.10,2013-09-29 15:47:00,
2013-09-29 12:02:00,67.4,51.0,30.15,SW,219,0.0,5.0,56,0.00,,,0.00,weatherlink.com 1.10,2013-09-29 16:02:00,
2013-09-29 12:17:00,68.0,50.0,30.14,NE,43,2.0,5.0,53,0.00,,,0.00,weatherlink.com 1.10,2013-09-29 16:17:00,
2013-09-29 12:32:00,67.8,51.0,30.14,South,188,1.0,4.0,56,0.00,,,0.00,weatherlink.com 1.10,2013-09-29 16:32:00,
2013-09-29 12:47:00,68.0,51.0,30.13,SSW,203,0.0,6.0,55,0.00,,,0.00,weatherlink.com 1.10,2013-09-29 16:47:00,
2013-09-29 13:02:00,68.4,51.0,30.12,SW,214,2.0,6.0,55,0.00,,,0.00,weatherlink.com 1.10,2013-09-29 17:02:00,
2013-09-29 13:17:00,68.9,51.0,30.12,SW,215,1.0,5.0,54,0.00,,,0.00,weatherlink.com 1.10,2013-09-29 17:17:00,
2013-09-29 13:32:00,70.0,52.0,30.11,SE,146,3.0,5.0,53,0.00,,,0.00,weatherlink.com 1.10,2013-09-29 17:32:00,
2013-09-29 13:47:00,70.8,51.0,30.10,East,101,1.0,4.0,50,0.00,,,0.00,weatherlink.com 1.10,2013-09-29 17:47:00,
2013-09-29 14:02:00,70.6,51.0,30.10,SSW,205,2.0,4.0,51,0.00,,,0.00,weatherlink.com 1.10,2013-09-29 18:02:00,
2013-09-29 14:17:00,71.3,53.0,30.09,South,178,2.0,4.0,52,0.00,,,0.00,weatherlink.com 1.10,2013-09-29 18:17:00,
2013-09-29 14:32:00,71.7,53.0,30.09,West,265,4.0,5.0,52,0.00,,,0.00,weatherlink.com 1.10,2013-09-29 18:32:00,
2013-09-29 14:47:00,70.7,52.0,30.08,SSE,159,1.0,4.0,51,0.00,,,0.00,weatherlink.com 1.10,2013-09-29 18:47:00,
2013-09-29 15:02:00,70.3,52.0,30.08,SW,225,1.0,4.0,53,0.00,,,0.00,weatherlink.com 1.10,2013-09-29 19:02:00,
2013-09-29 15:17:00,68.1,52.0,30.08,SSW,193,1.0,6.0,57,0.00,,,0.00,weatherlink.com 1.10,2013-09-29 19:17:00,
2013-09-29 15:32:00,68.2,53.0,30.07,SSW,207,1.0,7.0,59,0.00,,,0.00,weatherlink.com 1.10,2013-09-29 19:32:00,
2013-09-29 15:47:00,67.9,53.0,30.07,SSW,211,2.0,8.0,60,0.00,,,0.00,weatherlink.com 1.10,2013-09-29 19:47:00,
2013-09-29 16:03:00,69.3,53.0,30.06,South,172,3.0,9.0,57,0.00,,,0.00,weatherlink.com 1.10,2013-09-29 20:03:00,
2013-09-29 16:18:00,70.3,52.0,30.06,SSE,165,1.0,6.0,53,0.00,,,0.00,weatherlink.com 1.10,2013-09-29 20:18:00,
2013-09-29 16:33:00,70.3,53.0,30.05,SE,140,3.0,9.0,54,0.00,,,0.00,weatherlink.com 1.10,2013-09-29 20:33:00,
2013-09-29 16:48:00,69.9,52.0,30.05,SE,129,2.0,7.0,54,0.00,,,0.00,weatherlink.com 1.10,2013-09-29 20:48:00,
2013-09-29 17:03:00,68.6,52.0,30.05,SSE,159,2.0,8.0,56,0.00,,,0.00,weatherlink.com 1.10,2013-09-29 21:03:00,
2013-09-29 17:18:00,68.7,52.0,30.05,SSE,148,1.0,5.0,56,0.00,,,0.00,weatherlink.com 1.10,2013-09-29 21:18:00,
2013-09-29 17:33:00,68.1,52.0,30.05,South,177,0.0,7.0,56,0.00,,,0.00,weatherlink.com 1.10,2013-09-29 21:33:00,
2013-09-29 17:48:00,67.2,51.0,30.05,ESE,115,2.0,5.0,57,0.00,,,0.00,weatherlink.com 1.10,2013-09-29 21:48:00,
2013-09-29 18:03:00,65.4,51.0,30.05,SSE,150,3.0,6.0,60,0.00,,,0.00,weatherlink.com 1.10,2013-09-29 22:03:00,
2013-09-29 18:18:00,63.5,51.0,30.05,SSW,206,1.0,3.0,63,0.00,,,0.00,weatherlink.com 1.10,2013-09-29 22:18:00,
2013-09-29 18:33:00,61.6,51.0,30.05,SSW,201,1.0,3.0,69,0.00,,,0.00,weatherlink.com 1.10,2013-09-29 22:33:00,
2013-09-29 18:48:00,60.0,51.0,30.06,SW,221,0.0,1.0,73,0.00,,,0.00,weatherlink.com 1.10,2013-09-29 22:48:00,
2013-09-29 19:03:00,58.9,51.0,30.06,SSW,213,0.0,2.0,75,0.00,,,0.00,weatherlink.com 1.10,2013-09-29 23:03:00,
2013-09-29 19:18:00,57.5,50.0,30.06,SSW,202,1.0,3.0,76,0.00,,,0.00,weatherlink.com 1.10,2013-09-29 23:18:00,
2013-09-29 19:33:00,56.4,50.0,30.07,South,172,1.0,4.0,78,0.00,,,0.00,weatherlink.com 1.10,2013-09-29 23:33:00,
2013-09-29 19:48:00,55.4,49.0,30.07,South,191,1.0,3.0,80,0.00,,,0.00,weatherlink.com 1.10,2013-09-29 23:48:00,
2013-09-29 20:03:00,54.5,49.0,30.07,SSW,198,0.0,4.0,82,0.00,,,0.00,weatherlink.com 1.10,2013-09-30 00:03:00,
2013-09-29 20:18:00,53.3,49.0,30.08,SSE,161,0.0,2.0,84,0.00,,,0.00,weatherlink.com 1.10,2013-09-30 00:18:00,
2013-09-29 20:33:00,52.2,48.0,30.08,SSE,161,0.0,1.0,86,0.00,,,0.00,weatherlink.com 1.10,2013-09-30 00:33:00,
2013-09-29 20:48:00,51.3,48.0,30.08,SSE,161,0.0,1.0,88,0.00,,,0.00,weatherlink.com 1.10,2013-09-30 00:48:00,
2013-09-29 21:03:00,50.9,48.0,30.08,SSE,161,0.0,0.0,88,0.00,,,0.00,weatherlink.com 1.10,2013-09-30 01:03:00,
2013-09-29 21:18:00,50.2,47.0,30.09,SSE,161,0.0,1.0,90,0.00,,,0.00,weatherlink.com 1.10,2013-09-30 01:18:00,
2013-09-29 21:33:00,49.9,47.0,30.08,SSE,161,0.0,0.0,90,0.00,,,0.00,weatherlink.com 1.10,2013-09-30 01:33:00,
2013-09-29 21:48:00,49.3,47.0,30.08,SSE,161,0.0,1.0,90,0.00,,,0.00,weatherlink.com 1.10,2013-09-30 01:48:00,
2013-09-29 22:03:00,48.7,46.0,30.08,SE,134,0.0,2.0,91,0.00,,,0.00,weatherlink.com 1.10,2013-09-30 02:03:00,
2013-09-29 22:18:00,47.9,46.0,30.08,SE,134,0.0,0.0,91,0.00,,,0.00,weatherlink.com 1.10,2013-09-30 02:18:00,
2013-09-29 22:33:00,47.4,45.0,30.08,SE,134,1.0,2.0,91,0.00,,,0.00,weatherlink.com 1.10,2013-09-30 02:33:00,
2013-09-29 22:48:00,47.1,45.0,30.08,SE,128,1.0,2.0,92,0.00,,,0.00,weatherlink.com 1.10,2013-09-30 02:48:00,
2013-09-29 23:03:00,47.0,45.0,30.08,SE,128,0.0,1.0,92,0.00,,,0.00,weatherlink.com 1.10,2013-09-30 03:03:00,
2013-09-29 23:18:00,46.9,45.0,30.08,SE,128,0.0,1.0,92,0.00,,,0.00,weatherlink.com 1.10,2013-09-30 03:18:00,
2013-09-29 23:33:00,46.1,44.0,30.08,SE,128,0.0,2.0,93,0.00,,,0.00,weatherlink.com 1.10,2013-09-30 03:33:00,
2013-09-29 23:48:00,45.5,43.0,30.08,SE,128,0.0,2.0,92,0.00,,,0.00,weatherlink.com 1.10,2013-09-30 03:48:00,